SCP
-0 -0 0 0 0 0 0 -0 0 -0 0 0 0 0 -0 -0 0 -0 -0 0 -0 -0 -0 0 0 0 0 0 0 0 0 0 0 0 0 0 0 0 0 0 0 0 -0 0 -0 -0 -0 -0 -0
-0 0 0 0 0 -0 0 -0 -0 -0 -0 -0 -0 0 -0 -0 0 -0 -0 -0 -0 -0 -0 -0 0 0 0 0 0 0 0 0 0 0 0 0 0 0 0 0 0 0 0 0 -0 -0 -0 -0 -0
-0 0 0 -0 -0 -0 0 -0 -0 -0 -0 -0 0 -0 -0 0 -0 -0 -0 0 -0 -0 -0 -0 0 0 0 0 0 0 0 0 0 0 0 -0 0 0 0 0 0 -0 0 0 -0 -0 -0 -0 -0
0 0 -0 0 -0 -0 -0 -0 -0 -0 -0 0 -0 -0 0 0 0 -0 -0 0 0 -0 -0 -0 -0 0 0 0 0 0 -0 0 0 0 0 0 0 -0 0 0 0 0 0 0 -0 -0 0 0 0
0 0 0 0 -0 -0 -0 -0 -0 -0 0 0 0 -0 -0 0 -0 -0 -0 0 -0 -0 -0 -0 -0 0 0 0 0 -0 -0 -0 0 0 0 0 -0 0 0 -0 0 0 -0 0 0 0 -0 0 0
-0 0 0 0 -0 -0 -0 -0 0 -0 -0 -0 -0 -0 -0 0 -0 -0 0 0 0 -0 -0 -0 -0 0 0 -0 -0 -0 -0 -0 0 0 -0 -0 0 0 0 0 -0 0 -0 0 0 -0 0 -0 0
-0 0 0 -0 -0 -0 -0 0 0 -0 -0 -0 -0 -0 -0 -0 -0 0 0 0 -0 -0 -0 -0 -0 -0 0 -0 -0 -0 -0 0 -0 -0 -0 -0 -0 0 0 0 -0 -0 0 0 0 -0 0 0 -0
-0 0 -0 -0 -0 -0 -0 -0 -0 -0 -0 -0 -0 0 -0 -0 0 0 -0 0 -0 0 -0 -0 -0 -0 -0 -0 0 0 -0 -0 -0 0 0 -0 -0 -0 -0 -0 -0 -0 -0 0 0 -0 0 0 -0
0 0 0 -0 -0 -0 -0 0 -0 0 -0 0 0 -0 -0 -0 -0 -0 -0 0 -0 -0 -0 -0 -0 0 0 0 0 0 -0 -0 -0 -0 -0 0 -0 0 -0 0 0 -0 -0 -0 -0 0 0 -0 -0
-0 -0 -0 -0 -0 0 -0 0 -0 -0 -0 -0 -0 -0 -0 -0 -0 -0 -0 0 0 -0 -0 0 -0 -0 0 -0 0 0 -0 0 0 0 0 -0 -0 0 0 -0 -0 -0 0 0 0 -0 0 -0 -0
0 -0 0 0 -0 -0 -0 -0 -0 -0 0 -0 -0 -0 -0 -0 -0 0 -0 0 -0 0 0 -0 -0 -0 0 -0 0 0 -0 -0 0 0 0 0 0 0 -0 0 -0 0 0 -0 -0 0 -0 0 -0
-0 0 0 0 0 -0 -0 -0 -0 -0 -0 -0 -0 -0 -0 -0 -0 -0 0 -0 -0 0 -0 -0 0 0 -0 0 0 0 -0 0 0 0 0 0 0 0 -0 -0 -0 0 -0 0 -0 -0 -0 -0 -0
0 0 -0 -0 -0 -0 -0 -0 -0 -0 -0 -0 -0 -0 -0 -0 -0 -0 0 -0 -0 -0 -0 -0 0 0 -0 0 -0 0 0 0 0 0 0 0 0 0 0 0 0 0 0 -0 0 0 0 -0 -0
0 -0 -0 0 -0 -0 -0 -0 -0 -0 -0 -0 -0 -0 -0 -0 -0 0 0 -0 -0 -0 -0 -0 0 0 0 0 0 0 0 -0 0 -0 0 -0 0 0 0 -0 -0 -0 -0 -0 -0 -0 -0 -0 -0
0 -0 0 -0 0 0 -0 -0 -0 -0 -0 -0 -0 -0 -0 0 -0 0 -0 -0 0 0 -0 -0 -0 0 -0 -0 -0 -0 0 -0 0 0 0 -0 -0 0 0 -0 0 -0 -0 -0 -0 0 -0 -0 -0
0 -0 -0 -0 -0 0 -0 0 0 -0 -0 -0 -0 -0 -0 -0 -0 0 0 0 -0 0 -0 -0 0 0 -0 0 -0 0 0 0 0 -0 -0 -0 -0 0 0 0 -0 0 0 -0 -0 -0 -0 -0 0
-0 -0 -0 0 -0 0 -0 -0 -0 0 -0 -0 -0 -0 -0 -0 -0 0 0 -0 0 -0 -0 0 0 0 0 0 -0 -0 0 0 -0 -0 -0 -0 -0 0 0 0 0 0 -0 -0 -0 0 0 0 -0
0 0 -0 -0 -0 -0 0 -0 -0 -0 0 -0 -0 -0 -0 0 0 -0 0 0 0 -0 0 -0 0 0 0 0 0 0 0 0 -0 -0 -0 -0 0 0 -0 -0 0 -0 -0 -0 -0 0 -0 -0 -0
0 0 0 -0 -0 -0 -0 -0 -0 -0 -0 -0 -0 -0 -0 -0 0 -0 -0 0 -0 0 0 -0 0 0 0 0 -0 -0 -0 0 0 0 -0 0 0 0 0 0 0 0 0 0 -0 -0 0 0 0
0 0 -0 -0 -0 -0 -0 -0 -0 -0 -0 -0 -0 -0 -0 -0 -0 -0 0 0 -0 0 0 -0 -0 0 0 0 -0 -0 0 0 0 0 -0 -0 0 0 -0 0 0 0 0 0 0 -0 0 0 0
-0 -0 -0 -0 -0 -0 -0 -0 -0 -0 -0 -0 -0 -0 -0 -0 -0 -0 -0 0 -0 0 0 0 -0 0 0 0 -0 0 0 -0 -0 0 0 0 0 0 0 0 0 0 0 0 0 0 0 0 0
-0 0 0 -0 -0 0 -0 0 0 -1 -0 -0 -0 -0 -0 -1 -0 -0 -0 0 0 0 0 0 0 -0 0 -0 -0 0 0 -0 0 -0 0 0 0 0 0 0 0 0 1 0 0 0 0 0 0
-0 0 -0 -0 -0 -0 0 -0 -0 -0 -0 -0 -0 -0 -0 -0 -1 -0 -0 -0 -0 -0 0 0 0 -0 -0 0 -0 -0 -0 -0 -0 0 0 0 0 0 0 0 0 0 0 -0 -0 -0 -0 0 0
0 -0 -0 -0 -0 -0 -0 -0 -0 0 -0 -0 -0 -0 -0 -0 -0 -0 -0 -1 -0 0 -0 0 0 0 0 -0 0 -0 0 0 0 0 0 0 0 0 0 0 0 0 0 0 0 -0 -0 0 0
-0 -0 0 0 0 -0 -0 0 -0 0 0 -0 -0 -0 -0 -0 -0 -0 -0 -0 -0 -0 0 -0 0 0 0 -0 -0 0 -0 -0 -0 -0 -0 0 0 0 0 0 0 0 0 0 0 0 0 0 -0
0 -0 -0 0 -0 0 0 -0 0 -0 -0 -0 -0 -0 -0 -0 -0 -0 -0 -0 -0 0 -0 -0 -0 0 0 -0 0 -0 0 0 -0 -0 -0 0 0 0 1 0 0 0 0 0 0 0 0 -0 -0
0 0 -0 -0 0 0 0 -0 -0 0 0 0 -0 -0 -0 -0 -0 -0 -0 -0 -0 -0 -0 -0 -0 -0 0 -0 0 0 0 -0 -0 -0 0 0 0 0 0 0 0 0 0 0 0 0 0 -0 -0
-0 -0 -0 0 0 -0 0 -0 0 -0 0 0 -0 0 -0 -0 -0 -0 -0 -0 -0 -0 -0 -0 -0 -0 -0 -0 -0 0 -0 -0 -0 -0 0 -0 -0 0 0 0 0 0 0 0 -0 -0 -0 -0 -0
-0 -0 -0 -0 -0 -0 0 0 -0 0 0 0 0 -0 -0 -0 -0 -0 -0 -0 -0 -0 -0 -0 -0 -0 -0 -0 -0 -0 -0 -0 -0 -0 -0 -0 0 0 0 0 0 -0 -0 -0 0 -0 -0 -0 0
0 0 -0 -0 -0 0 0 0 -0 0 -0 -0 0 -0 -0 -0 -0 0 -0 -0 -0 -0 -0 -0 -0 -0 -0 -0 -0 -0 -0 -0 -0 -0 -0 -0 0 0 0 0 -0 -0 -0 0 -0 -0 -0 -0 0
Wind_Speed_500mb
12 8 2 13 7 7 8 25 27 33 22 25 26 13 29 33 20 11 47 37 40 35 32 30 28 27 24 24 21 20 21 21 24 19 22 23 25 25 29 30 34 36 36 36 37 38 39 40 41
13 9 14 12 5 14 17 31 28 24 33 32 24 19 15 26 18 47 44 43 39 34 30 25 27 26 22 20 20 19 21 20 21 18 22 24 26 26 28 30 32 34 31 33 36 35 35 34 36
3 14 10 9 8 5 18 17 30 36 34 28 17 20 16 11 42 41 44 44 38 34 29 22 25 24 20 15 15 14 17 16 18 18 22 25 27 29 30 31 33 30 29 29 30 32 33 32 33
5 11 22 4 14 30 30 22 30 38 28 10 28 19 18 21 36 41 46 41 37 33 30 24 22 21 18 14 13 13 14 15 18 19 21 23 26 28 29 30 27 25 28 28 29 29 29 31 32
14 18 12 11 21 36 20 30 24 26 20 19 12 17 26 38 32 47 44 38 34 32 21 21 20 19 15 12 12 12 13 17 18 19 21 24 24 24 24 23 24 23 24 26 28 27 30 28 27
15 11 4 13 19 31 16 30 17 16 26 23 31 37 24 31 47 45 40 35 31 25 28 12 17 14 12 10 12 12 15 19 20 22 27 26 24 21 24 21 19 21 22 21 26 27 23 24 23
22 9 15 23 25 25 22 17 12 8 23 17 27 20 30 44 46 44 39 34 29 27 25 13 13 10 11 11 13 17 20 22 23 29 35 27 22 21 22 21 19 18 18 21 24 20 20 19 20
29 9 24 21 20 23 23 20 25 17 12 24 27 10 45 52 47 43 38 34 29 24 21 22 18 15 7 10 17 22 26 25 25 34 35 33 23 21 19 17 19 18 16 17 18 19 17 14 17
10 5 1 21 20 20 35 20 23 16 27 17 10 45 54 52 47 43 37 32 28 23 20 18 21 27 21 28 31 29 26 24 26 31 31 29 25 18 15 10 10 13 13 12 16 18 19 17 20
16 6 13 16 35 18 29 17 20 23 25 23 37 53 56 50 48 44 38 34 30 27 24 21 26 25 30 26 32 31 26 25 23 26 29 23 22 19 13 4 18 13 13 12 12 19 19 20 12
12 19 16 17 21 19 21 27 18 27 13 30 46 61 55 56 45 40 35 32 31 28 23 21 26 21 30 23 29 20 20 18 19 20 20 21 16 14 14 10 17 16 15 15 11 14 11 22 12
4 14 17 16 4 18 11 21 25 35 26 26 38 52 55 54 47 40 36 34 31 28 25 22 23 18 22 19 27 20 20 19 19 16 19 17 15 17 15 11 15 15 16 18 10 10 13 13 14
10 12 10 11 7 23 6 34 7 15 7 28 37 47 53 50 44 40 34 32 30 29 26 25 23 22 20 18 20 20 13 19 13 11 15 18 12 15 17 14 16 18 13 9 13 11 9 8 10
5 5 7 18 12 16 15 13 12 11 14 33 36 43 47 49 44 39 36 33 31 28 27 25 24 24 20 19 18 17 18 16 11 13 18 7 16 10 16 16 10 10 5 11 11 11 15 14 12
9 22 24 30 16 15 18 17 16 14 20 29 35 38 44 42 42 42 38 35 33 31 29 27 25 23 20 18 18 17 12 8 5 11 5 11 14 13 13 19 19 19 15 13 11 16 12 14 14
26 29 30 28 19 11 31 19 17 17 25 29 32 36 39 41 45 41 36 36 34 31 31 29 24 22 19 16 14 12 12 12 5 14 4 5 5 9 15 13 19 19 15 16 13 12 20 17 21
24 29 34 24 17 12 18 20 23 20 27 32 32 35 40 45 47 43 40 35 37 29 31 29 26 24 19 14 10 8 4 5 16 6 6 2 6 5 11 16 14 24 16 10 11 17 15 18 18
5 8 15 23 21 23 12 23 26 25 21 44 38 40 43 43 49 44 37 40 34 36 29 29 25 24 21 12 14 8 5 5 6 3 1 1 6 6 10 8 10 13 17 19 14 16 6 8 4
6 10 4 15 16 17 13 26 26 28 26 42 38 49 45 53 45 45 34 37 36 35 34 32 28 24 21 16 12 8 8 6 3 4 7 2 5 6 12 4 3 9 14 17 21 12 7 12 21
7 14 13 14 16 23 17 23 24 27 27 29 44 49 48 49 50 45 42 41 39 40 38 35 30 26 21 14 11 8 4 2 4 2 9 3 3 4 1 5 4 7 9 13 13 19 16 16 20
5 6 14 17 26 29 20 18 21 27 28 33 34 47 48 44 55 50 49 46 42 43 40 37 32 26 22 16 13 8 6 1 1 5 6 6 4 7 3 8 6 11 11 11 8 10 15 12 21
24 7 8 13 22 12 35 11 49 36 33 32 39 38 46 59 49 48 55 52 48 48 42 38 35 30 25 23 16 13 8 4 8 4 8 3 7 5 4 6 9 12 17 12 7 7 13 15 15
14 5 13 18 24 17 19 11 33 38 34 34 37 43 43 48 57 52 55 54 50 53 44 40 39 34 30 24 26 15 11 7 2 3 6 1 9 6 6 10 6 8 18 14 10 8 15 17 10
9 19 22 22 16 14 45 16 30 15 30 34 39 44 45 47 51 54 54 59 58 52 48 44 43 39 34 29 23 28 15 13 4 4 4 7 8 7 8 5 7 7 7 5 13 16 16 12 15
18 28 6 12 3 19 30 7 27 22 21 39 40 46 44 45 50 53 54 55 56 58 54 49 45 44 39 34 29 24 25 23 19 14 8 8 4 11 16 9 9 8 9 10 2 10 10 13 12
21 32 14 10 12 6 9 22 10 22 11 38 44 43 44 44 47 50 52 54 55 55 54 50 53 50 43 40 36 31 29 24 23 23 20 16 13 10 14 12 14 11 13 9 9 7 8 13 13
11 15 24 26 5 9 13 19 23 20 20 32 39 44 45 44 43 44 48 51 53 55 55 54 52 53 53 43 40 36 35 32 29 29 25 20 18 18 24 23 18 20 20 23 19 14 13 16 17
32 22 11 11 7 12 6 21 18 17 22 23 35 40 44 43 42 41 43 46 48 50 53 53 52 49 42 44 41 38 37 36 37 37 35 32 28 26 31 30 25 25 23 27 31 30 29 31 26
18 24 23 17 22 19 15 8 19 16 23 25 33 43 44 44 43 42 42 41 41 42 46 50 51 48 46 42 41 39 37 37 36 34 33 33 29 30 32 28 26 29 33 33 36 36 34 34 33
22 14 32 15 18 27 8 15 19 10 23 25 25 43 47 45 43 43 41 40 41 40 40 43 44 45 43 41 40 40 39 38 37 35 33 31 29 29 31 27 28 32 35 36 39 37 33 36 34
Wind_Direction_500mb
175 178 157 221 236 217 105 98 103 111 109 114 102 98 70 30 29 59 137 140 140 139 144 137 133 131 130 125 119 110 101 95 102 101 88 88 91 98 107 106 107 105 111 107 104 101 97 92 91
186 230 246 259 256 123 93 110 120 100 116 111 103 103 84 59 78 127 132 142 136 137 134 141 135 133 134 128 126 115 102 94 97 99 99 91 89 98 107 107 113 108 112 110 109 105 103 99 95
185 240 250 219 140 122 120 99 97 115 120 114 87 71 41 72 121 128 137 136 135 130 136 152 130 130 132 134 129 120 111 102 99 110 108 99 94 97 103 106 113 109 111 110 110 105 101 99 99
230 259 261 287 86 100 115 122 119 134 115 98 120 87 86 114 131 136 138 135 134 131 139 138 128 128 128 130 144 140 127 117 110 114 114 102 103 101 101 104 106 108 108 112 113 107 101 101 103
258 250 268 164 99 101 119 117 123 143 146 135 117 92 109 135 132 139 138 136 133 134 128 134 127 124 123 129 133 132 123 125 117 115 120 111 106 109 107 103 104 104 109 112 115 109 101 100 99
264 254 300 111 111 112 110 103 125 148 138 108 109 118 123 143 144 143 139 138 135 134 136 139 126 120 121 129 129 139 132 123 122 122 117 108 101 106 106 110 107 116 119 121 122 117 110 102 101
253 234 171 128 120 119 118 129 114 140 133 130 134 111 134 148 148 144 142 140 137 133 125 129 123 112 104 141 150 141 133 128 129 129 134 121 109 105 109 114 109 114 124 122 120 116 121 116 112
272 284 75 70 116 120 128 126 118 115 130 126 136 160 152 151 150 147 144 142 140 137 130 120 120 83 106 152 150 134 134 136 135 145 144 136 129 124 116 109 116 120 127 126 120 113 110 118 127
263 288 244 96 72 123 123 141 128 115 129 128 109 138 147 149 151 150 146 145 146 141 134 126 135 92 80 106 133 133 130 128 137 145 145 141 145 133 124 122 137 134 137 143 126 113 99 101 118
106 155 184 49 124 151 152 121 132 150 136 127 116 134 147 151 151 157 156 155 152 144 142 126 122 123 111 114 122 124 114 129 134 145 151 146 162 159 158 121 180 166 150 157 145 119 102 98 116
339 55 83 66 27 120 123 113 180 152 154 142 135 147 155 155 160 162 159 162 153 151 141 137 119 110 128 104 102 123 126 123 144 148 140 152 167 180 173 139 155 163 137 144 151 161 152 124 153
187 49 37 81 29 116 128 158 117 75 256 134 145 155 158 161 164 166 170 160 153 152 146 142 145 130 124 128 116 126 132 140 149 155 144 176 166 167 165 164 158 140 163 160 180 168 166 163 149
322 89 137 108 198 107 132 108 264 88 165 137 144 155 162 165 166 168 170 160 160 157 154 149 148 140 143 130 134 131 137 145 146 157 160 158 194 182 175 175 148 148 167 188 174 191 183 159 143
51 146 143 150 131 111 120 128 143 87 149 141 152 158 166 174 166 169 171 165 165 162 158 157 146 141 140 136 139 140 136 119 159 151 174 188 180 192 195 182 175 191 169 180 189 201 210 184 191
212 163 153 148 174 148 108 134 91 114 149 150 153 167 170 173 167 174 171 168 170 167 160 155 152 146 140 132 121 123 121 148 135 176 215 177 203 210 187 182 193 195 211 204 206 215 210 206 196
212 208 147 139 164 143 169 108 132 142 149 143 164 176 170 175 173 178 172 174 169 170 164 160 156 156 152 153 147 154 120 170 304 22 127 65 164 188 181 168 177 182 202 211 222 239 221 225 212
149 264 134 125 192 149 224 127 150 170 151 156 163 179 173 182 180 178 175 174 172 166 167 166 163 160 155 163 164 145 83 136 170 172 201 159 139 151 144 173 194 201 203 214 223 264 244 225 205
29 94 88 127 161 221 179 105 156 174 164 154 173 177 180 190 183 176 181 176 178 176 175 171 168 168 162 166 161 167 155 221 7 42 99 154 123 104 123 202 218 183 202 203 219 253 230 158 180
292 283 170 125 142 204 230 133 164 176 168 155 172 173 192 188 177 177 169 179 183 182 185 181 178 179 177 171 160 165 197 178 231 259 342 148 127 142 118 169 205 216 218 206 207 227 232 168 175
206 206 155 123 171 240 150 143 166 179 177 175 166 187 192 180 179 184 190 188 193 189 194 194 192 189 183 185 179 169 192 203 192 143 293 251 264 265 226 145 194 217 226 234 234 208 202 208 213
190 337 146 163 193 222 142 131 179 179 183 173 181 184 183 191 181 188 191 195 190 195 197 200 198 196 194 186 184 195 198 254 131 218 226 232 211 286 286 221 247 234 218 215 240 216 210 227 226
101 27 247 209 214 122 228 164 260 182 188 181 182 192 188 183 198 188 195 198 197 199 197 201 200 196 201 198 197 194 214 190 106 130 196 254 250 268 311 271 279 301 282 244 206 205 228 208 233
56 268 250 233 257 233 190 249 200 171 187 183 189 184 195 192 188 197 195 198 201 199 198 200 202 203 197 208 189 208 205 222 141 141 296 57 268 303 233 300 346 314 351 224 192 307 231 216 220
309 236 228 223 244 33 235 296 7 207 189 189 187 185 191 191 198 196 197 192 198 201 199 203 203 204 205 204 213 205 206 220 204 195 249 276 269 282 305 286 315 314 308 227 226 222 231 239 228
238 240 241 218 165 235 223 199 176 184 172 176 180 184 186 189 193 201 198 197 198 199 202 201 200 207 206 208 208 218 220 223 225 227 244 267 257 247 260 263 264 292 329 262 317 259 257 228 243
201 284 262 292 343 153 224 123 254 101 118 158 170 179 179 186 188 197 202 202 200 203 201 203 209 207 212 212 215 224 222 226 231 230 226 240 255 256 255 253 260 259 272 288 254 304 297 280 268
235 252 308 295 207 232 123 280 115 118 138 150 164 172 176 182 185 191 197 201 205 205 206 206 206 215 218 219 224 221 228 222 221 223 231 248 263 260 263 275 249 259 259 265 262 261 298 264 269
270 341 266 333 358 11 311 321 80 147 152 166 161 178 176 181 185 186 192 196 201 205 207 208 209 213 216 215 220 219 222 227 229 228 234 238 236 243 246 245 250 258 260 262 267 265 266 264 263
200 230 226 172 176 242 231 118 71 134 155 167 172 182 178 183 183 186 190 190 193 198 203 206 209 212 213 214 215 219 222 225 232 232 239 245 250 251 250 250 242 251 265 265 263 264 259 261 256
309 321 279 243 312 342 54 93 25 80 143 161 184 180 180 185 183 183 182 183 186 192 196 200 205 209 214 216 217 220 225 222 230 234 234 240 244 247 250 248 259 266 262 257 262 265 263 254 251
Wind_Speed_850mb
12 8 2 13 7 7 8 25 27 33 22 25 26 13 29 33 20 11 47 37 40 35 32 30 28 27 24 24 21 20 21 21 24 19 22 23 25 25 29 30 34 36 36 36 37 38 39 40 41
13 9 14 12 5 14 17 31 28 24 33 32 24 19 15 26 18 47 44 43 39 34 30 25 27 26 22 20 20 19 21 20 21 18 22 24 26 26 28 30 32 34 31 33 36 35 35 34 36
3 14 10 9 8 5 18 17 30 36 34 28 17 20 16 11 42 41 44 44 38 34 29 22 25 24 20 15 15 14 17 16 18 18 22 25 27 29 30 31 33 30 29 29 30 32 33 32 33
5 11 22 4 14 30 30 22 30 38 28 10 28 19 18 21 36 41 46 41 37 33 30 24 22 21 18 14 13 13 14 15 18 19 21 23 26 28 29 30 27 25 28 28 29 29 29 31 32
14 18 12 11 21 36 20 30 24 26 20 19 12 17 26 38 32 47 44 38 34 32 21 21 20 19 15 12 12 12 13 17 18 19 21 24 24 24 24 23 24 23 24 26 28 27 30 28 27
15 11 4 13 19 31 16 30 17 16 26 23 31 37 24 31 47 45 40 35 31 25 28 12 17 14 12 10 12 12 15 19 20 22 27 26 24 21 24 21 19 21 22 21 26 27 23 24 23
22 9 15 23 25 25 22 17 12 8 23 17 27 20 30 44 46 44 39 34 29 27 25 13 13 10 11 11 13 17 20 22 23 29 35 27 22 21 22 21 19 18 18 21 24 20 20 19 20
29 9 24 21 20 23 23 20 25 17 12 24 27 10 45 52 47 43 38 34 29 24 21 22 18 15 7 10 17 22 26 25 25 34 35 33 23 21 19 17 19 18 16 17 18 19 17 14 17
10 5 1 21 20 20 35 20 23 16 27 17 10 45 54 52 47 43 37 32 28 23 20 18 21 27 21 28 31 29 26 24 26 31 31 29 25 18 15 10 10 13 13 12 16 18 19 17 20
16 6 13 16 35 18 29 17 20 23 25 23 37 53 56 50 48 44 38 34 30 27 24 21 26 25 30 26 32 31 26 25 23 26 29 23 22 19 13 4 18 13 13 12 12 19 19 20 12
12 19 16 17 21 19 21 27 18 27 13 30 46 61 55 56 45 40 35 32 31 28 23 21 26 21 30 23 29 20 20 18 19 20 20 21 16 14 14 10 17 16 15 15 11 14 11 22 12
4 14 17 16 4 18 11 21 25 35 26 26 38 52 55 54 47 40 36 34 31 28 25 22 23 18 22 19 27 20 20 19 19 16 19 17 15 17 15 11 15 15 16 18 10 10 13 13 14
10 12 10 11 7 23 6 34 7 15 7 28 37 47 53 50 44 40 34 32 30 29 26 25 23 22 20 18 20 20 13 19 13 11 15 18 12 15 17 14 16 18 13 9 13 11 9 8 10
5 5 7 18 12 16 15 13 12 11 14 33 36 43 47 49 44 39 36 33 31 28 27 25 24 24 20 19 18 17 18 16 11 13 18 7 16 10 16 16 10 10 5 11 11 11 15 14 12
9 22 24 30 16 15 18 17 16 14 20 29 35 38 44 42 42 42 38 35 33 31 29 27 25 23 20 18 18 17 12 8 5 11 5 11 14 13 13 19 19 19 15 13 11 16 12 14 14
26 29 30 28 19 11 31 19 17 17 25 29 32 36 39 41 45 41 36 36 34 31 31 29 24 22 19 16 14 12 12 12 5 14 4 5 5 9 15 13 19 19 15 16 13 12 20 17 21
24 29 34 24 17 12 18 20 23 20 27 32 32 35 40 45 47 43 40 35 37 29 31 29 26 24 19 14 10 8 4 5 16 6 6 2 6 5 11 16 14 24 16 10 11 17 15 18 18
5 8 15 23 21 23 12 23 26 25 21 44 38 40 43 43 49 44 37 40 34 36 29 29 25 24 21 12 14 8 5 5 6 3 1 1 6 6 10 8 10 13 17 19 14 16 6 8 4
6 10 4 15 16 17 13 26 26 28 26 42 38 49 45 53 45 45 34 37 36 35 34 32 28 24 21 16 12 8 8 6 3 4 7 2 5 6 12 4 3 9 14 17 21 12 7 12 21
7 14 13 14 16 23 17 23 24 27 27 29 44 49 48 49 50 45 42 41 39 40 38 35 30 26 21 14 11 8 4 2 4 2 9 3 3 4 1 5 4 7 9 13 13 19 16 16 20
5 6 14 17 26 29 20 18 21 27 28 33 34 47 48 44 55 50 49 46 42 43 40 37 32 26 22 16 13 8 6 1 1 5 6 6 4 7 3 8 6 11 11 11 8 10 15 12 21
24 7 8 13 22 12 35 11 49 36 33 32 39 38 46 59 49 48 55 52 48 48 42 38 35 30 25 23 16 13 8 4 8 4 8 3 7 5 4 6 9 12 17 12 7 7 13 15 15
14 5 13 18 24 17 19 11 33 38 34 34 37 43 43 48 57 52 55 54 50 53 44 40 39 34 30 24 26 15 11 7 2 3 6 1 9 6 6 10 6 8 18 14 10 8 15 17 10
9 19 22 22 16 14 45 16 30 15 30 34 39 44 45 47 51 54 54 59 58 52 48 44 43 39 34 29 23 28 15 13 4 4 4 7 8 7 8 5 7 7 7 5 13 16 16 12 15
18 28 6 12 3 19 30 7 27 22 21 39 40 46 44 45 50 53 54 55 56 58 54 49 45 44 39 34 29 24 25 23 19 14 8 8 4 11 16 9 9 8 9 10 2 10 10 13 12
21 32 14 10 12 6 9 22 10 22 11 38 44 43 44 44 47 50 52 54 55 55 54 50 53 50 43 40 36 31 29 24 23 23 20 16 13 10 14 12 14 11 13 9 9 7 8 13 13
11 15 24 26 5 9 13 19 23 20 20 32 39 44 45 44 43 44 48 51 53 55 55 54 52 53 53 43 40 36 35 32 29 29 25 20 18 18 24 23 18 20 20 23 19 14 13 16 17
32 22 11 11 7 12 6 21 18 17 22 23 35 40 44 43 42 41 43 46 48 50 53 53 52 49 42 44 41 38 37 36 37 37 35 32 28 26 31 30 25 25 23 27 31 30 29 31 26
18 24 23 17 22 19 15 8 19 16 23 25 33 43 44 44 43 42 42 41 41 42 46 50 51 48 46 42 41 39 37 37 36 34 33 33 29 30 32 28 26 29 33 33 36 36 34 34 33
22 14 32 15 18 27 8 15 19 10 23 25 25 43 47 45 43 43 41 40 41 40 40 43 44 45 43 41 40 40 39 38 37 35 33 31 29 29 31 27 28 32 35 36 39 37 33 36 34
Wind_Direction_850mb
175 178 157 221 236 217 105 98 103 111 109 114 102 98 70 30 29 59 137 140 140 139 144 137 133 131 130 125 119 110 101 95 102 101 88 88 91 98 107 106 107 105 111 107 104 101 97 92 91
186 230 246 259 256 123 93 110 120 100 116 111 103 103 84 59 78 127 132 142 136 137 134 141 135 133 134 128 126 115 102 94 97 99 99 91 89 98 107 107 113 108 112 110 109 105 103 99 95
185 240 250 219 140 122 120 99 97 115 120 114 87 71 41 72 121 128 137 136 135 130 136 152 130 130 132 134 129 120 111 102 99 110 108 99 94 97 103 106 113 109 111 110 110 105 101 99 99
230 259 261 287 86 100 115 122 119 134 115 98 120 87 86 114 131 136 138 135 134 131 139 138 128 128 128 130 144 140 127 117 110 114 114 102 103 101 101 104 106 108 108 112 113 107 101 101 103
258 250 268 164 99 101 119 117 123 143 146 135 117 92 109 135 132 139 138 136 133 134 128 134 127 124 123 129 133 132 123 125 117 115 120 111 106 109 107 103 104 104 109 112 115 109 101 100 99
264 254 300 111 111 112 110 103 125 148 138 108 109 118 123 143 144 143 139 138 135 134 136 139 126 120 121 129 129 139 132 123 122 122 117 108 101 106 106 110 107 116 119 121 122 117 110 102 101
253 234 171 128 120 119 118 129 114 140 133 130 134 111 134 148 148 144 142 140 137 133 125 129 123 112 104 141 150 141 133 128 129 129 134 121 109 105 109 114 109 114 124 122 120 116 121 116 112
272 284 75 70 116 120 128 126 118 115 130 126 136 160 152 151 150 147 144 142 140 137 130 120 120 83 106 152 150 134 134 136 135 145 144 136 129 124 116 109 116 120 127 126 120 113 110 118 127
263 288 244 96 72 123 123 141 128 115 129 128 109 138 147 149 151 150 146 145 146 141 134 126 135 92 80 106 133 133 130 128 137 145 145 141 145 133 124 122 137 134 137 143 126 113 99 101 118
106 155 184 49 124 151 152 121 132 150 136 127 116 134 147 151 151 157 156 155 152 144 142 126 122 123 111 114 122 124 114 129 134 145 151 146 162 159 158 121 180 166 150 157 145 119 102 98 116
339 55 83 66 27 120 123 113 180 152 154 142 135 147 155 155 160 162 159 162 153 151 141 137 119 110 128 104 102 123 126 123 144 148 140 152 167 180 173 139 155 163 137 144 151 161 152 124 153
187 49 37 81 29 116 128 158 117 75 256 134 145 155 158 161 164 166 170 160 153 152 146 142 145 130 124 128 116 126 132 140 149 155 144 176 166 167 165 164 158 140 163 160 180 168 166 163 149
322 89 137 108 198 107 132 108 264 88 165 137 144 155 162 165 166 168 170 160 160 157 154 149 148 140 143 130 134 131 137 145 146 157 160 158 194 182 175 175 148 148 167 188 174 191 183 159 143
51 146 143 150 131 111 120 128 143 87 149 141 152 158 166 174 166 169 171 165 165 162 158 157 146 141 140 136 139 140 136 119 159 151 174 188 180 192 195 182 175 191 169 180 189 201 210 184 191
212 163 153 148 174 148 108 134 91 114 149 150 153 167 170 173 167 174 171 168 170 167 160 155 152 146 140 132 121 123 121 148 135 176 215 177 203 210 187 182 193 195 211 204 206 215 210 206 196
212 208 147 139 164 143 169 108 132 142 149 143 164 176 170 175 173 178 172 174 169 170 164 160 156 156 152 153 147 154 120 170 304 22 127 65 164 188 181 168 177 182 202 211 222 239 221 225 212
149 264 134 125 192 149 224 127 150 170 151 156 163 179 173 182 180 178 175 174 172 166 167 166 163 160 155 163 164 145 83 136 170 172 201 159 139 151 144 173 194 201 203 214 223 264 244 225 205
29 94 88 127 161 221 179 105 156 174 164 154 173 177 180 190 183 176 181 176 178 176 175 171 168 168 162 166 161 167 155 221 7 42 99 154 123 104 123 202 218 183 202 203 219 253 230 158 180
292 283 170 125 142 204 230 133 164 176 168 155 172 173 192 188 177 177 169 179 183 182 185 181 178 179 177 171 160 165 197 178 231 259 342 148 127 142 118 169 205 216 218 206 207 227 232 168 175
206 206 155 123 171 240 150 143 166 179 177 175 166 187 192 180 179 184 190 188 193 189 194 194 192 189 183 185 179 169 192 203 192 143 293 251 264 265 226 145 194 217 226 234 234 208 202 208 213
190 337 146 163 193 222 142 131 179 179 183 173 181 184 183 191 181 188 191 195 190 195 197 200 198 196 194 186 184 195 198 254 131 218 226 232 211 286 286 221 247 234 218 215 240 216 210 227 226
101 27 247 209 214 122 228 164 260 182 188 181 182 192 188 183 198 188 195 198 197 199 197 201 200 196 201 198 197 194 214 190 106 130 196 254 250 268 311 271 279 301 282 244 206 205 228 208 233
56 268 250 233 257 233 190 249 200 171 187 183 189 184 195 192 188 197 195 198 201 199 198 200 202 203 197 208 189 208 205 222 141 141 296 57 268 303 233 300 346 314 351 224 192 307 231 216 220
309 236 228 223 244 33 235 296 7 207 189 189 187 185 191 191 198 196 197 192 198 201 199 203 203 204 205 204 213 205 206 220 204 195 249 276 269 282 305 286 315 314 308 227 226 222 231 239 228
238 240 241 218 165 235 223 199 176 184 172 176 180 184 186 189 193 201 198 197 198 199 202 201 200 207 206 208 208 218 220 223 225 227 244 267 257 247 260 263 264 292 329 262 317 259 257 228 243
201 284 262 292 343 153 224 123 254 101 118 158 170 179 179 186 188 197 202 202 200 203 201 203 209 207 212 212 215 224 222 226 231 230 226 240 255 256 255 253 260 259 272 288 254 304 297 280 268
235 252 308 295 207 232 123 280 115 118 138 150 164 172 176 182 185 191 197 201 205 205 206 206 206 215 218 219 224 221 228 222 221 223 231 248 263 260 263 275 249 259 259 265 262 261 298 264 269
270 341 266 333 358 11 311 321 80 147 152 166 161 178 176 181 185 186 192 196 201 205 207 208 209 213 216 215 220 219 222 227 229 228 234 238 236 243 246 245 250 258 260 262 267 265 266 264 263
200 230 226 172 176 242 231 118 71 134 155 167 172 182 178 183 183 186 190 190 193 198 203 206 209 212 213 214 215 219 222 225 232 232 239 245 250 251 250 250 242 251 265 265 263 264 259 261 256
309 321 279 243 312 342 54 93 25 80 143 161 184 180 180 185 183 183 182 183 186 192 196 200 205 209 214 216 217 220 225 222 230 234 234 240 244 247 250 248 259 266 262 257 262 265 263 254 251